Location: Black Forest
(43.4794°N, 75.0081°W)
Time: 23:40:33
(UTC-04:00)

ISS - All Passes

Search period start: 02 June 2015 00:00
Search period end: 12 June 2015 00:00
Orbit: 398 x 404 km, 51.6° (Epoch: 02 June)

Date Brightness Start Highest point End Pass type
(mag) Time Alt. Az. Time Alt. Az. Time Alt. Az.
02 Jun - 00:19:45 10° WNW 00:22:14 20° N 00:24:45 10° NE visible
02 Jun - 01:56:42 10° NW 01:59:25 24° NNE 02:02:09 10° ENE visible
02 Jun - 03:32:55 10° WNW 03:36:11 87° NNE 03:39:27 10° ESE visible
02 Jun - 05:10:43 10° WSW 05:12:12 12° SW 05:13:34 10° SSW daylight
02 Jun - 20:14:21 10° SSE 20:15:55 13° SE 20:17:35 10° ESE daylight
02 Jun - 21:48:42 10° WSW 21:51:57 81° NNW 21:55:13 10° NE visible
02 Jun - 23:26:03 10° WNW 23:28:44 23° NNW 23:31:25 10° NE visible
03 Jun - 01:03:24 10° NW 01:05:55 20° N 01:08:26 10° ENE visible
03 Jun - 02:39:40 10° NW 02:42:51 50° NNE 02:46:03 10° ESE visible
03 Jun - 04:16:26 10° W 04:19:06 23° SW 04:21:43 10° S visible
03 Jun - 20:55:32 10° SW 20:58:41 54° SE 21:01:53 10° ENE daylight
03 Jun - 22:32:20 10° W 22:35:15 29° NNW 22:38:10 10° NE visible
04 Jun - 00:09:57 10° NW 00:12:22 19° N 00:14:48 10° NE visible
04 Jun - 01:46:27 10° NW 01:49:27 33° NNE 01:52:28 10° E visible
04 Jun - 03:22:49 10° WNW 03:25:56 42° SW 03:29:02 10° SSE visible
04 Jun - 20:02:41 10° SSW 20:05:29 28° SE 20:08:21 10° ENE daylight
04 Jun - 21:38:42 10° W 21:41:49 42° NNW 21:44:56 10° NE visible
04 Jun - 23:16:21 10° NW 23:18:49 19° N 23:21:17 10° NE visible
05 Jun - 00:53:13 10° NW 00:55:59 25° NNE 00:58:45 10° ENE visible
05 Jun - 02:29:25 10° WNW 02:32:41 82° SW 02:35:57 10° SE visible
05 Jun - 04:07:55 10° WSW 04:08:39 10° SW 04:09:15 10° SW night (unlit)
05 Jun - 19:10:24 10° S 19:12:21 15° SE 19:14:23 10° E daylight
05 Jun - 20:45:13 10° WSW 20:48:26 71° NNW 20:51:41 10° NE daylight
05 Jun - 22:22:39 10° WNW 22:25:16 22° NNW 22:27:54 10° NE visible
05 Jun - 23:59:54 10° NW 00:02:27 21° N 00:05:01 10° ENE visible
06 Jun - 01:36:08 10° NW 01:39:21 57° NNE 01:42:34 10° ESE visible
06 Jun - 03:13:04 10° W 03:15:33 20° SW 03:17:57 10° S night (unlit)
06 Jun - 19:51:56 10° SW 19:55:08 63° SE 19:58:21 10° ENE daylight
06 Jun - 21:28:54 10° W 21:31:45 27° NNW 21:34:36 10° NE visible
06 Jun - 23:06:27 10° NW 23:08:53 19° N 23:11:19 10° NE visible
07 Jun - 00:42:53 10° NW 00:45:56 36° NNE 00:49:00 10° E visible
07 Jun - 02:19:19 10° WNW 02:22:22 36° SW 02:25:23 10° SSE visible
07 Jun - 18:58:58 10° SSW 19:01:54 32° SE 19:04:52 10° ENE daylight
07 Jun - 20:35:12 10° W 20:38:16 38° NNW 20:41:20 10° NE daylight
07 Jun - 22:12:52 10° NW 22:15:18 19° N 22:17:44 10° NE visible
07 Jun - 23:49:38 10° NW 23:52:27 26° NNE 23:55:16 10° ENE visible
08 Jun - 01:25:51 10° WNW 01:29:06 71° SW 01:32:20 10° SE visible
08 Jun - 18:06:29 10° S 18:08:43 18° SE 18:11:00 10° E daylight
08 Jun - 19:41:38 10° WSW 19:44:51 62° NNW 19:48:05 10° NE daylight
08 Jun - 21:19:08 10° WNW 21:21:43 21° N 21:24:18 10° NE visible
08 Jun - 22:56:19 10° NW 22:58:54 21° N 23:01:30 10° ENE visible
09 Jun - 00:32:31 10° NW 00:35:46 64° NNE 00:38:59 10° ESE visible
09 Jun - 02:09:38 10° W 02:11:53 17° SW 02:14:04 10° S visible
09 Jun - 18:48:16 10° SW 18:51:30 74° SE 18:54:44 10° ENE daylight
09 Jun - 20:25:22 10° WNW 20:28:10 26° NNW 20:30:57 10° NE daylight
09 Jun - 22:02:53 10° NW 22:05:19 19° N 22:07:46 10° NE visible
09 Jun - 23:39:14 10° NW 23:42:19 39° NNE 23:45:25 10° E visible
10 Jun - 01:15:45 10° WNW 01:18:41 31° SW 01:21:37 10° SSE visible
10 Jun - 17:55:12 10° SSW 17:58:12 38° SE 18:01:15 10° ENE daylight
10 Jun - 19:31:37 10° W 19:34:38 35° NNW 19:37:40 10° NE daylight
10 Jun - 21:09:17 10° NW 21:11:42 19° N 21:14:07 10° NE visible
10 Jun - 22:45:58 10° NW 22:48:49 28° NNE 22:51:42 10° E visible
11 Jun - 00:22:12 10° WNW 00:25:25 60° SW 00:28:38 10° SE visible
11 Jun - 17:02:32 10° S 17:04:59 20° SE 17:07:29 10° E daylight
11 Jun - 18:38:00 10° WSW 18:41:10 54° NNW 18:44:22 10° NE daylight
11 Jun - 20:15:33 10° WNW 20:18:05 20° N 20:20:37 10° NE daylight
11 Jun - 21:52:37 10° NW 21:55:15 22° NNE 21:57:55 10° ENE visible
11 Jun - 23:28:49 10° NW 23:32:04 73° NNE 23:35:19 10° ESE visible
